Chongqing, China

6:39 AM CST on November 20, 2019 (GMT +0800)
Jiangbei

Weather History for ZUCK - September, 2019

Change the Weather History Date:

Monday, September 2, 2019

  Actual Average Record
Temperature  
Mean Temperature 78 °F -  
Max Temperature 88 °F - - ()
Min Temperature 69 °F - - ()
Cooling Degree Days 14    
Growing Degree Days 28 (Base 50)    
Moisture  
Dew Point 67 °F    
Average Humidity 66    
Maximum Humidity 94    
Minimum Humidity 35    
Precipitation  
Precipitation 0.00 in - - ()
Sea Level Pressure  
Sea Level Pressure 29.94 in    
Wind  
Wind Speed 5 mph ()    
Max Wind Speed 9 mph    
Max Gust Speed -    
Visibility 6.7 miles    
Events      
T = Trace of Precipitation, MM = Missing Value Source: Averaged Metar Reports

Daily Weather History Graph

Daily Weather History Graph

Search for Another Location

Airport or City:

Astronomy

Sep. 02, 2019 Rise Set
Actual Time 6:30 AM CST 7:15 PM CST
Civil Twilight 6:06 AM CST 7:39 PM CST
Nautical Twilight 5:37 AM CST 8:08 PM CST
Astronomical Twilight 5:08 AM CST 8:37 PM CST
Moon 9:22 AM CST (9/2) 9:32 PM CST (9/2)
Length of Visible Light 13h 33m
Length of Day
12h 44m
Waxing Crescent, 11% of the Moon is Illuminated
Sep 2
Waxing Crescent
Sep 6
First Quarter
Sep 14
Full
Sep 22
Last Quarter
Sep 29
New

Hourly Weather History & Observations

Time (CST) Temp. Heat Index Dew Point Humidity Pressure Visibility Wind Dir Wind Speed Gust Speed Precip Events Conditions
12:00 AM 73.4 °F - 68.0 °F 83% 30.01 in - NNE 6.7 mph - N/A   Clear
1:00 AM 71.6 °F - 68.0 °F 88% 30.01 in - North 4.5 mph - N/A   Clear
2:00 AM 71.6 °F - 68.0 °F 88% 29.98 in - North 4.5 mph - N/A   Clear
3:00 AM 71.6 °F - 68.0 °F 88% 29.98 in 5.0 mi North 4.5 mph - N/A   Partly Cloudy
4:00 AM 71.6 °F - 68.0 °F 88% 29.98 in 5.0 mi NNE 4.5 mph - N/A   Unknown
5:00 AM 73 °F - 68 °F 80% 29.90 in - WNW 4.5 mph - -   Mist
5:00 AM 69.8 °F - 68.0 °F 94% 29.95 in 5.0 mi North 6.7 mph - N/A   Unknown
6:00 AM 69.8 °F - 68.0 °F 94% 29.95 in 5.0 mi NNE 4.5 mph - N/A   Scattered Clouds
7:00 AM 71.6 °F - 68.0 °F 88% 29.98 in 4.3 mi NNE 6.7 mph - N/A   Unknown
8:00 AM 74 °F - 69 °F 78% 29.93 in - NNW 2.2 mph - -   Mist
8:00 AM 73.4 °F - 68.0 °F 83% 29.98 in 5.0 mi NNE 8.9 mph - N/A   Unknown
9:00 AM 73.4 °F - 68.0 °F 83% 30.01 in - North 8.9 mph - N/A   Clear
10:00 AM 78.8 °F - 66.2 °F 65% 30.01 in 6.2 mi ENE 6.7 mph - N/A   Partly Cloudy
11:00 AM 83 °F - 65 °F 46% 29.93 in 9 mi SE 4.5 mph - -   Partly Cloudy
11:00 AM 82.4 °F 83.9 °F 64.4 °F 54% 30.01 in 6.2 mi ESE 6.7 mph - N/A   Scattered Clouds
12:00 PM 82.4 °F 83.9 °F 64.4 °F 54% 29.98 in 6.2 mi East 6.7 mph - N/A   Scattered Clouds
1:00 PM 86.0 °F 88.2 °F 66.2 °F 51% 29.95 in 6.2 mi Variable 6.7 mph - N/A   Scattered Clouds
2:00 PM 88 °F - 64 °F 35% 29.86 in 13 mi ENE 2.2 mph - -   Scattered Clouds
2:00 PM 87.8 °F 90.4 °F 66.2 °F 49% 29.95 in 6.2 mi East 6.7 mph - N/A   Scattered Clouds
3:00 PM 86.0 °F 87.3 °F 64.4 °F 48% 29.92 in 6.2 mi Variable 2.2 mph - N/A   Partly Cloudy
4:00 PM 86.0 °F 87.3 °F 64.4 °F 48% 29.89 in - SW 4.5 mph - N/A   Clear
5:00 PM 86 °F - 65 °F 41% 29.82 in 11 mi WNW 4.5 mph - -   Mostly Cloudy
5:00 PM 86.0 °F 87.3 °F 64.4 °F 48% 29.89 in - Variable 4.5 mph - N/A   Clear
6:00 PM 84.2 °F 85.6 °F 64.4 °F 51% 29.89 in - SSW 4.5 mph - N/A   Clear
7:00 PM 82.4 °F 84.6 °F 66.2 °F 58% 29.89 in - South 4.5 mph - N/A   Clear
8:00 PM 84 °F - 66 °F 46% 29.84 in 8 mi NNW 2.2 mph - -   Mostly Cloudy
8:00 PM 82.4 °F 84.6 °F 66.2 °F 58% 29.92 in - South 4.5 mph - N/A   Clear
9:00 PM 82.4 °F 84.6 °F 66.2 °F 58% 29.92 in - West 6.7 mph - N/A   Clear
10:00 PM 80.6 °F 83.2 °F 68.0 °F 65% 29.95 in - WNW 6.7 mph - N/A   Clear
11:00 PM 82 °F - 66 °F 50% 29.88 in 7 mi WNW 2.2 mph - -  
11:00 PM 78.8 °F - 69.8 °F 74% 29.95 in - WNW 6.7 mph - N/A   Clear